Tracking 31027 objects as of 19-Jul-2025
HD Live streaming from Space Station
objects crossing your sky now

NOAA 16 DEB

Track NOAA 16 DEB now!
10-day predictions


NORAD ID: 41244
Int'l Code: 2000-055EU
Perigee: 779.9 km
Apogee: 793.6 km
Inclination: 99.0 °
Period: 100.4 minutes
Semi major axis: 7157 km
RCS: Unknown
Launch date: September 21, 2000
Source: United States (US)
Launch site: AIR FORCE WESTERN TEST RANGE (AFWTR)

Note: This is SATELLITE DEBRIS
Your satellite tracking list
FLOCK 4V 13
Track 1 satellite(s)




NASA's NSSDC Master Catalog

Two Line Element Set (TLE):
1 41244U 00055EU  25197.64587256  .00003359  00000-0  12282-2 0  9999
2 41244  99.0268 351.9025 0009626 235.8071 124.2200 14.33636507493156
Source of the keplerian elements: AFSPC